Regional Weather Roundup
Issued by NWS

Home | Current Version | Previous Version | Text Only | Print | Product List | Glossary On
Versions: 1 2 3 4 5 6 7 8 9 10 11 12 13 14 15 16 17 18 19 20 21 22 23 24 25 26 27 28 29 30 31 32 33 34 35 36 37 38 39 40 41 42 43 44 45 46 47 48 49 50
000
ASUS46 KSEW 012110
RWRWA

WASHINGTON REGIONAL WEATHER ROUNDUP
NATIONAL WEATHER SERVICE SEATTLE WA
100 PM PST SUN FEB 01 2015

NOTE:"FAIR" INDICATES FEW OR NO CLOUDS BELOW 12,000 FEET WITH NO
SIGNIFICANT WEATHER AND/OR OBSTRUCTIONS TO VISIBILITY.

WAZ505-507>509-012200-
SEATTLE, TACOMA, EVERETT, AND VICINITY

CITY           SKY/WX    TMP DP  RH WIND       PRES   REMARKS
EVERETT        CLOUDY    45  41  86 S14       30.01F
BOEING FIELD   LGT RAIN  47  43  86 SE7       30.04S FOG
RENTON         CLOUDY    45  44  97 SE5       30.04F FOG
SEATAC AIRPORT LGT RAIN  44  42  93 S5        30.04F
JBLM-MCCHORD   MIX PCPN  45  45 100 CALM      30.04S FOG
PUYALLUP       DRIZZLE   45  45 100 CALM      30.04R
BREMERTON      CLOUDY    45  45 100 S10       30.05F
JBLM-FT LEWIS  LGT RAIN  44  44  99 N2        30.04S FOG
TACOMA NARROWS LGT RAIN  44  42  93 W5        30.05R VSB 1
$$

WAZ001-503-506-510-514-515-012200-
NORTH INTERIOR

CITY           SKY/WX    TMP DP  RH WIND       PRES   REMARKS
BELLINGHAM     LGT RAIN  48  42  80 S12G21    29.98F
FRIDAY HARBOR  CLOUDY    47  44  90 SE6       30.00R
EASTSOUND      PTSUNNY   46  43  87 S12G17    29.96F
PORT ANGELES   CLOUDY    46  42  86 MISG      29.99R
NAS WHIDBEY    LGT RAIN  49  43  80 SE15      30.00R
ARLINGTON      CLOUDY    46  39  76 SE9       30.03S
BURLINGTON     CLOUDY    48 N/A N/A S8        30.03R
$$

WAZ020-022-039-040-504-511-512-012200-
SOUTHWEST INTERIOR

CITY           SKY/WX    TMP DP  RH WIND       PRES   REMARKS
SHELTON        LGT RAIN  45  43  93 E3        30.01F FOG
OLYMPIA        LGT RAIN  45  42  89 SW10      30.05R FOG
CHEHALIS       CLOUDY    48  45  87 S14       30.06R
KELSO          CLOUDY    43  37  81 SE10G18   30.14S
VANCOUVER      CLOUDY    42  39  89 E6        30.14S
SCAPPOOSE, OR  CLOUDY    43  41  93 SE9       30.12F
PORTLAND, OR   CLOUDY    42  40  92 E13       30.14F
$$

WAZ021-516-517-012200-
WASHINGTON COAST

CITY           SKY/WX    TMP DP  RH WIND       PRES   REMARKS
FORKS          LGT RAIN  49  49 100 S6        29.99S FOG
HOQUIAM        LGT RAIN  50  49  96 S15       30.02R FOG
ASTORIA, OR    CLOUDY    47  45  93 E5        30.06S
$$

WAZ019-023-024-040-518-519-012200-
CASCADE MOUNTAINS AND COLUMBIA GORGE

CITY           SKY/WX    TMP DP  RH WIND       PRES   REMARKS
TROUTDALE, OR  CLOUDY    41  37  86 E18       30.13F
THE DALLES, OR LGT RAIN  41  34  76 CALM      30.16F
$$

WAZ026-027-041>044-520-521-012200-
EAST SLOPES

CITY           SKY/WX    TMP DP  RH WIND       PRES   REMARKS
OMAK           CLOUDY    34  31  88 S7        30.08F
WENATCHEE      CLOUDY    39  30  70 SE6       30.08F
ELLENSBURG       N/A     38  32  79 CALM      30.07F
YAKIMA         CLOUDY    38  33  82 CALM      30.11F
$$

WAZ028-034-035-012200-
COLUMBIA BASIN

CITY           SKY/WX    TMP DP  RH WIND       PRES   REMARKS
EPHRATA        LGT RAIN  38  32  79 S5        30.08F
MOSES LAKE     CLOUDY    37  32  82 S6        30.11F FOG
PASCO          LGT RAIN  39  36  89 S6        30.17F
HERMISTON, OR  LGT RAIN  38  34  85 CALM      30.15F FOG
$$

WAZ036>038-012200-
NORTHEAST WASHINGTON

CITY           SKY/WX    TMP DP  RH WIND       PRES   REMARKS
SPOKANE GEIGER LGT SNOW  32  30  92 S3        30.05F
SPOKANE FELTS  CLOUDY    35  31  85 CALM      30.08F
FAIRCHILD AFB  FLURRIES  32  32 100 S6        30.05F
COEURDALENE,ID CLOUDY    34  30  86 N6        30.05F
DEER PARK      LGT SNOW  33  31  92 CALM      30.07S FOG
$$

WAZ029>033-012200-
SOUTHEAST WASHINGTON

CITY           SKY/WX    TMP DP  RH WIND       PRES   REMARKS
PULLMAN        LGT SNOW  33  31  92 SW3       30.08F FOG
LEWISTON, ID   CLOUDY    39  31  72 CALM      30.11F
WALLA WALLA    LGT RAIN  36  34  92 CALM      30.13F FOG
PENDLETON, OR  LGT RAIN  35  33  92 CALM      30.11F FOG
$$


USA.gov is the U.S. government's official web portal to all federal, state and local government web resources and services.